When you browse on this site, cookies collect data to enhance your experience and personalize the content and advertising you see.
Visit our Privacy Policy to learn more. By continuing to use the site, you agree to this use of cookies and data.
  • In Spain
  • List of Countries
  • For 7 days
  • Water Temperature
  • Weather Map
  • Weather Widgets
  • user-avatar
    Login

    Hourly Weather Plevlya

    Today, 1 June, Monday

    Time Temperature Precipitation Wind Pressure Humidity
    00:00 +4°C° 0.3 mm 0 mps 665 mmHg 96%
    01:00 +5°C° 0 mm 1 mps 665 mmHg 97%
    02:00 +5°C° 0 mm 1 mps 665 mmHg 97%
    03:00 +4°C° 0 mm 1 mps 664 mmHg 97%
    04:00 +3°C° 0 mm 0 mps 664 mmHg 97%
    05:00 +6°C° 0 mm 1 mps 665 mmHg 93%
    06:00 +7°C° 0 mm 1 mps 665 mmHg 89%
    07:00 +8°C° 0 mm 1 mps 666 mmHg 86%
    08:00 +9°C° 0.1 mm 1 mps 666 mmHg 82%
    09:00 +9°C° 0.1 mm 2 mps 666 mmHg 78%
    10:00 +9°C° 0.1 mm 2 mps 666 mmHg 73%
    11:00 +10°C° 0.1 mm 2 mps 666 mmHg 70%
    12:00 +12°C° 0.1 mm 2 mps 666 mmHg 68%
    13:00 +12°C° 0.1 mm 3 mps 667 mmHg 65%
    14:00 +12°C° 0.1 mm 2 mps 666 mmHg 69%
    15:00 +12°C° 0.1 mm 2 mps 666 mmHg 74%
    16:00 +12°C° 0.1 mm 2 mps 666 mmHg 78%
    17:00 +9°C° 0.1 mm 2 mps 666 mmHg 83%
    18:00 +9°C° 0.1 mm 1 mps 665 mmHg 89%
    19:00 +8°C° 0.1 mm 1 mps 665 mmHg 94%
    20:00 +8°C° 0 mm 1 mps 665 mmHg 95%
    21:00 +7°C° 0 mm 1 mps 665 mmHg 96%
    22:00 +7°C° 0 mm 1 mps 665 mmHg 97%
    23:00 +6°C° 0 mm 1 mps 665 mmHg 97%

    Tomorrow, 2 June, Tuesday

    Time Temperature Precipitation Wind Pressure Humidity
    00:00 +6°C° 0 mm 1 mps 665 mmHg 98%
    01:00 +6°C° 0 mm 1 mps 664 mmHg 98%
    02:00 +6°C° 0 mm 1 mps 664 mmHg 98%
    03:00 +6°C° 0 mm 1 mps 664 mmHg 97%
    04:00 +6°C° 0 mm 1 mps 664 mmHg 97%
    05:00 +8°C° 0 mm 1 mps 664 mmHg 93%
    06:00 +9°C° 0 mm 1 mps 665 mmHg 89%
    07:00 +10°C° 0 mm 2 mps 665 mmHg 85%
    08:00 +12°C° 0.1 mm 2 mps 665 mmHg 79%
    09:00 +12°C° 0.1 mm 3 mps 666 mmHg 73%
    10:00 +13°C° 0.1 mm 3 mps 666 mmHg 67%
    11:00 +13°C° 0.3 mm 3 mps 666 mmHg 68%
    12:00 +13°C° 0.3 mm 3 mps 666 mmHg 68%
    13:00 +13°C° 0.3 mm 4 mps 666 mmHg 68%
    14:00 +13°C° 0.2 mm 3 mps 665 mmHg 69%
    15:00 +12°C° 0.2 mm 3 mps 665 mmHg 70%
    16:00 +12°C° 0.2 mm 3 mps 665 mmHg 72%
    17:00 +10°C° 0.1 mm 2 mps 664 mmHg 78%
    18:00 +8°C° 0.1 mm 2 mps 663 mmHg 84%
    19:00 +8°C° 0.1 mm 1 mps 663 mmHg 91%
    20:00 +7°C° 0 mm 1 mps 663 mmHg 92%
    21:00 +6°C° 0 mm 1 mps 663 mmHg 93%
    22:00 +5°C° 0 mm 1 mps 663 mmHg 94%
    23:00 +5°C° 0 mm 1 mps 663 mmHg 94%

    Day after tomorrow, 3 June, Wednesday

    Time Temperature Precipitation Wind Pressure Humidity
    00:00 +5°C° 0 mm 1 mps 662 mmHg 94%
    01:00 +4°C° 0 mm 1 mps 662 mmHg 95%
    02:00 +4°C° 0 mm 1 mps 662 mmHg 95%
    03:00 +4°C° 0 mm 1 mps 662 mmHg 95%
    04:00 +4°C° 0 mm 1 mps 662 mmHg 95%
    05:00 +6°C° 0 mm 1 mps 662 mmHg 90%
    06:00 +8°C° 0 mm 1 mps 663 mmHg 85%
    07:00 +10°C° 0 mm 1 mps 663 mmHg 80%
    08:00 +11°C° 0 mm 1 mps 663 mmHg 71%
    09:00 +13°C° 0 mm 2 mps 664 mmHg 62%
    10:00 +14°C° 0 mm 2 mps 664 mmHg 52%
    11:00 +15°C° 0 mm 2 mps 664 mmHg 51%
    12:00 +15°C° 0 mm 2 mps 664 mmHg 50%
    13:00 +16°C° 0 mm 2 mps 664 mmHg 49%
    14:00 +16°C° 0 mm 2 mps 664 mmHg 51%
    15:00 +16°C° 0 mm 2 mps 664 mmHg 53%
    16:00 +16°C° 0 mm 2 mps 664 mmHg 55%
    17:00 +14°C° 0 mm 1 mps 663 mmHg 65%
    18:00 +12°C° 0 mm 1 mps 663 mmHg 74%
    19:00 +10°C° 0 mm 0 mps 662 mmHg 84%
    20:00 +10°C° 0 mm 1 mps 662 mmHg 87%
    21:00 +9°C° 0 mm 1 mps 662 mmHg 89%
    22:00 +8°C° 0 mm 1 mps 662 mmHg 92%
    23:00 +8°C° 0 mm 1 mps 662 mmHg 93%

    4 June, Thursday

    Time Temperature Precipitation Wind Pressure Humidity
    00:00 +7°C° 0 mm 2 mps 662 mmHg 94%
    01:00 +6°C° 0 mm 2 mps 662 mmHg 96%
    02:00 +6°C° 0 mm 2 mps 662 mmHg 95%
    03:00 +6°C° 0 mm 2 mps 661 mmHg 95%
    04:00 +6°C° 0 mm 2 mps 661 mmHg 95%
    05:00 +8°C° 0 mm 2 mps 662 mmHg 88%
    06:00 +10°C° 0 mm 2 mps 662 mmHg 80%
    07:00 +13°C° 0 mm 2 mps 663 mmHg 73%
    08:00 +15°C° 0 mm 2 mps 663 mmHg 68%
    09:00 +16°C° 0 mm 3 mps 664 mmHg 62%
    10:00 +18°C° 0 mm 3 mps 664 mmHg 56%
    11:00 +18°C° 0.1 mm 4 mps 664 mmHg 58%
    12:00 +18°C° 0.1 mm 4 mps 664 mmHg 59%
    13:00 +17°C° 0.1 mm 5 mps 664 mmHg 60%
    14:00 +17°C° 0.1 mm 5 mps 663 mmHg 60%
    15:00 +16°C° 0.1 mm 5 mps 663 mmHg 61%
    16:00 +16°C° 0.1 mm 5 mps 663 mmHg 61%
    17:00 +15°C° 0 mm 5 mps 663 mmHg 69%
    18:00 +13°C° 0 mm 4 mps 662 mmHg 77%
    19:00 +12°C° 0 mm 3 mps 662 mmHg 85%
    20:00 +11°C° 0 mm 3 mps 662 mmHg 87%
    21:00 +11°C° 0 mm 3 mps 662 mmHg 89%
    22:00 +11°C° 0 mm 3 mps 662 mmHg 91%
    23:00 +11°C° 0 mm 3 mps 662 mmHg 90%

    5 June, Friday

    Time Temperature Precipitation Wind Pressure Humidity
    00:00 +10°C° 0 mm 3 mps 662 mmHg 89%
    01:00 +10°C° 0 mm 3 mps 661 mmHg 89%
    02:00 +9°C° 0 mm 3 mps 661 mmHg 90%
    03:00 +9°C° 0 mm 3 mps 661 mmHg 90%
    04:00 +9°C° 0 mm 3 mps 660 mmHg 91%
    05:00 +8°C° 0 mm 4 mps 660 mmHg 87%
    06:00 +10°C° 0 mm 4 mps 661 mmHg 83%
    07:00 +11°C° 0 mm 4 mps 661 mmHg 79%
    08:00 +12°C° 0.3 mm 5 mps 661 mmHg 79%
    09:00 +12°C° 0.3 mm 5 mps 661 mmHg 80%
    10:00 +13°C° 0.3 mm 5 mps 660 mmHg 80%
    11:00 +13°C° 1.4 mm 6 mps 660 mmHg 81%
    12:00 +13°C° 1.4 mm 6 mps 660 mmHg 81%
    13:00 +12°C° 1.4 mm 7 mps 660 mmHg 82%
    14:00 +11°C° 0.6 mm 6 mps 659 mmHg 83%
    15:00 +10°C° 0.6 mm 5 mps 659 mmHg 85%
    16:00 +11°C° 0.6 mm 4 mps 659 mmHg 86%
    17:00 +10°C° 1.5 mm 4 mps 658 mmHg 90%
    18:00 +10°C° 1.5 mm 3 mps 658 mmHg 93%
    19:00 +9°C° 1.5 mm 2 mps 658 mmHg 97%
    20:00 +9°C° 1.6 mm 2 mps 659 mmHg 97%
    21:00 +9°C° 1.6 mm 2 mps 659 mmHg 98%
    22:00 +10°C° 1.6 mm 1 mps 660 mmHg 98%
    23:00 +10°C° 1 mm 1 mps 660 mmHg 98%

    6 June, Saturday

    Time Temperature Precipitation Wind Pressure Humidity
    00:00 +10°C° 1 mm 1 mps 660 mmHg 98%
    01:00 +10°C° 1 mm 1 mps 660 mmHg 98%
    02:00 +9°C° 0.1 mm 1 mps 661 mmHg 97%
    03:00 +8°C° 0.1 mm 0 mps 661 mmHg 97%
    04:00 +8°C° 0.1 mm 0 mps 661 mmHg 96%
    05:00 +8°C° 0.1 mm 0 mps 662 mmHg 96%
    06:00 +9°C° 0.1 mm 0 mps 663 mmHg 95%
    07:00 +10°C° 0.1 mm 0 mps 663 mmHg 94%
    08:00 +11°C° 0.3 mm 1 mps 664 mmHg 93%
    09:00 +12°C° 0.3 mm 1 mps 664 mmHg 91%
    10:00 +13°C° 0.3 mm 2 mps 664 mmHg 89%
    11:00 +13°C° 0.4 mm 2 mps 665 mmHg 84%
    12:00 +14°C° 0.4 mm 1 mps 665 mmHg 79%
    13:00 +15°C° 0.4 mm 1 mps 665 mmHg 74%
    14:00 +15°C° 0.4 mm 1 mps 665 mmHg 73%
    15:00 +15°C° 0.4 mm 1 mps 665 mmHg 72%
    16:00 +15°C° 0.4 mm 1 mps 665 mmHg 70%
    17:00 +14°C° 0.1 mm 1 mps 665 mmHg 75%
    18:00 +13°C° 0.1 mm 1 mps 665 mmHg 80%
    19:00 +11°C° 0.1 mm 0 mps 665 mmHg 85%
    20:00 +10°C° 0 mm 0 mps 665 mmHg 87%
    21:00 +9°C° 0 mm 0 mps 665 mmHg 90%
    22:00 +8°C° 0 mm 0 mps 665 mmHg 92%
    23:00 +7°C° 0 mm 0 mps 665 mmHg 92%
    Show more